2023/10/26 00:00:00,23.5, 8.0
2023/10/26 00:10:00,23.5, 7.8
2023/10/26 00:20:00,23.3, 7.9
2023/10/26 00:30:00,23.3, 7.6
2023/10/26 00:40:00,23.3, 7.6
2023/10/26 00:50:00,23.1, 7.6
2023/10/26 01:00:00,23.0, 6.8
2023/10/26 01:10:00,22.9, 7.4
2023/10/26 01:20:00,22.7, 7.4
2023/10/26 01:30:00,22.8, 7.3
2023/10/26 01:40:00,22.8, 7.3
2023/10/26 01:50:00,22.7, 7.3
2023/10/26 02:00:00,22.8, 7.1
2023/10/26 02:10:00,22.7, 7.1
2023/10/26 02:20:00,22.7, 7.1
2023/10/26 02:30:00,22.7, 7.0
2023/10/26 02:40:00,22.7, 7.1
2023/10/26 02:50:00,22.7, 6.5
2023/10/26 03:00:00,22.7, 6.7
2023/10/26 03:10:00,22.7, 6.7
2023/10/26 03:20:00,22.3, 6.7
2023/10/26 03:30:00,22.8, 6.6
2023/10/26 03:40:00,22.9, 6.7
2023/10/26 03:50:00,23.0, 6.4
2023/10/26 04:00:00,23.1, 6.3
2023/10/26 04:10:00,22.9, 6.2
2023/10/26 04:20:00,22.7, 6.0
2023/10/26 04:30:00,22.8, 6.2
2023/10/26 04:40:00,22.7, 6.2
2023/10/26 04:50:00,23.0, 6.1
2023/10/26 05:00:00,22.5, 6.1
2023/10/26 05:10:00,21.2, 6.3
2023/10/26 05:20:00,20.1, 6.1
2023/10/26 05:30:00,---, 6.0
2023/10/26 05:40:00,20.9, 5.9
2023/10/26 05:50:00,22.7, 6.0
2023/10/26 06:00:00,22.7, 5.9
2023/10/26 06:10:00,21.4, 6.0
2023/10/26 06:20:00,18.5, 6.2
2023/10/26 06:30:00,19.1, 5.9
2023/10/26 06:40:00,22.0, 6.0
2023/10/26 06:50:00,21.3, 6.7
2023/10/26 07:00:00,20.8, 6.0
2023/10/26 07:10:00,21.9, 6.2
2023/10/26 07:20:00,21.2, 6.3
2023/10/26 07:30:00,22.0, 6.6
2023/10/26 07:40:00,22.7, 6.6
2023/10/26 07:50:00,22.7, 7.1
2023/10/26 08:00:00,22.7, 7.5
2023/10/26 08:10:00,22.7, 6.8
2023/10/26 08:20:00,22.7, 8.0
2023/10/26 08:30:00,22.9, 8.5
2023/10/26 08:40:00,22.7, 8.9
2023/10/26 08:50:00,22.7, 9.8
2023/10/26 09:00:00,22.8,11.0
2023/10/26 09:10:00,22.8,14.7
2023/10/26 09:20:00,23.0,18.3
2023/10/26 09:30:00,23.4,17.0
2023/10/26 09:40:00,23.6,14.0
2023/10/26 09:50:00,23.7,13.9
2023/10/26 10:00:00,23.8,13.8
2023/10/26 10:10:00,24.0,15.9
2023/10/26 10:20:00,24.4,14.9
2023/10/26 10:30:00,24.6,14.9
2023/10/26 10:40:00,24.7,14.9
2023/10/26 10:50:00,24.7,15.8
2023/10/26 11:00:00,24.7,16.8
2023/10/26 11:10:00,24.8,20.7
2023/10/26 11:20:00,25.0,20.1
2023/10/26 11:30:00,25.0,18.0
2023/10/26 11:40:00,25.0,17.3
2023/10/26 11:50:00,24.8,17.6
2023/10/26 12:00:00,24.8,17.9
2023/10/26 12:10:00,25.0,18.2
2023/10/26 12:20:00,25.0,18.7
2023/10/26 12:30:00,24.9,17.9
2023/10/26 12:40:00,25.0,18.4
2023/10/26 12:50:00,24.9,17.4
2023/10/26 13:00:00,25.1,20.4
2023/10/26 13:10:00,25.4,20.6
2023/10/26 13:20:00,25.5,20.4
2023/10/26 13:30:00,25.3,20.2
2023/10/26 13:40:00,25.4,18.8
2023/10/26 13:50:00,25.4,19.1
2023/10/26 14:00:00,25.5,18.8
2023/10/26 14:10:00,25.4,19.0
2023/10/26 14:20:00,25.3,17.6
2023/10/26 14:30:00,25.6,18.3
2023/10/26 14:40:00,25.6,18.0
2023/10/26 14:50:00,25.5,19.1
2023/10/26 15:00:00,25.3,17.5
2023/10/26 15:10:00,25.4,17.4
2023/10/26 15:20:00,25.1,17.3
2023/10/26 15:30:00,25.4,17.1
2023/10/26 15:40:00,25.2,16.3
2023/10/26 15:50:00,25.4,16.5
2023/10/26 16:00:00,25.3,16.5
2023/10/26 16:10:00,25.2,15.5
2023/10/26 16:20:00,25.0,15.2
2023/10/26 16:30:00,24.9,14.8
2023/10/26 16:40:00,24.9,14.5
2023/10/26 16:50:00,24.8,14.2
2023/10/26 17:00:00,24.7,13.9
2023/10/26 17:10:00,24.7,13.6
2023/10/26 17:20:00,24.5,13.3
2023/10/26 17:30:00,24.4,13.0
2023/10/26 17:40:00,24.3,12.8
2023/10/26 17:50:00,24.3,12.4
2023/10/26 18:00:00,24.2,12.2
2023/10/26 18:10:00,24.2,12.0
2023/10/26 18:20:00,24.1,11.8
2023/10/26 18:30:00,24.1,11.5
2023/10/26 18:40:00,24.0,11.3
2023/10/26 18:50:00,24.0,11.2
2023/10/26 19:00:00,23.9,10.8
2023/10/26 19:10:00,23.9,10.6
2023/10/26 19:20:00,23.9,10.5
2023/10/26 19:30:00,23.9,10.5
2023/10/26 19:40:00,23.9,10.1
2023/10/26 19:50:00,23.9,10.0
2023/10/26 20:00:00,23.8, 9.9
2023/10/26 20:10:00,23.8, 9.8
2023/10/26 20:20:00,23.8, 9.6
2023/10/26 20:30:00,23.9, 9.6
2023/10/26 20:40:00,23.8, 9.3
2023/10/26 20:50:00,23.8, 9.2
2023/10/26 21:00:00,23.8, 9.6
2023/10/26 21:10:00,23.8, 9.3
2023/10/26 21:20:00,23.7, 9.4
2023/10/26 21:30:00,23.7, 9.3
2023/10/26 21:40:00,23.8, 9.1
2023/10/26 21:50:00,23.8, 9.0
2023/10/26 22:00:00,23.8, 8.9
2023/10/26 22:10:00,23.7, 8.8
2023/10/26 22:20:00,23.7, 8.8
2023/10/26 22:30:00,23.7, 8.7
2023/10/26 22:40:00,23.7, 9.0
2023/10/26 22:50:00,23.7, 8.5
2023/10/26 23:00:00,23.7, 8.5
2023/10/26 23:10:00,23.7, 8.4
2023/10/26 23:20:00,23.7, 8.4
2023/10/26 23:30:00,23.7, 8.1
2023/10/26 23:40:00,23.7, 8.0
2023/10/26 23:50:00,23.7, 8.0
